Ann Arbor, MI

2:46 AM EDT on May 22, 2018 (GMT -0400)
Ann Arbor Municipal

Weather History for KARB - September, 2013

Change the Weather History Date:

Thursday, September 19, 2013

  Actual Average Record
Temperature  
Mean Temperature 66 °F -  
Max Temperature 81 °F 70 °F 89 °F (2002)
Min Temperature 51 °F 44 °F 30 °F (2012)
Growing Degree Days 16 (Base 50)    
Moisture  
Dew Point 57 °F    
Average Humidity 92    
Maximum Humidity 100    
Minimum Humidity 62    
Precipitation  
Precipitation 0.00 in - - ()
Sea Level Pressure  
Sea Level Pressure 30.03 in    
Wind  
Wind Speed 1 mph (SSW)    
Max Wind Speed 10 mph    
Max Gust Speed -    
Visibility 3 miles    
Events Fog    
Averages and records for this station are not official NWS values.
T = Trace of Precipitation, MM = Missing Value Source: NWS Daily Summary

Daily Weather History Graph

Daily Weather History Graph

Search for Another Location

Airport or City:

Astronomy

Sep. 19, 2013 Rise Set
Actual Time 7:19 AM EDT 7:37 PM EDT
Civil Twilight 6:51 AM EDT 8:05 PM EDT
Nautical Twilight 6:18 AM EDT 8:37 PM EDT
Astronomical Twilight 5:44 AM EDT 9:11 PM EDT
Moon 7:33 PM EDT (9/19) 7:28 AM EDT (9/19)
Length of Visible Light 13h 13m
Length of Day
12h 17m
Full, 100% of the Moon is Illuminated
Sep 19
Full
Sep 26
Last Quarter
Oct 4
New
Oct 11
First Quarter
Oct 18
Full

Hourly Weather History & Observations

Time (EDT) Temp. Heat Index Dew Point Humidity Pressure Visibility Wind Dir Wind Speed Gust Speed Precip Events Conditions
12:09 AM 53.6 °F - 53.6 °F 100% 30.06 in 3.0 mi Calm Calm - N/A   Clear
12:38 AM 53.6 °F - 53.6 °F 100% 30.05 in 2.5 mi Calm Calm - N/A   Clear
12:53 AM 55.0 °F - 54.0 °F 96% 30.05 in 1.2 mi Calm Calm - N/A   Clear
1:03 AM 55.4 °F - 53.6 °F 94% 30.05 in 0.8 mi Calm Calm - N/A   Clear
1:08 AM 53.6 °F - 53.6 °F 100% 30.05 in 1.5 mi Calm Calm - N/A   Clear
1:18 AM 53.6 °F - 51.8 °F 94% 30.05 in 1.0 mi Calm Calm - N/A   Mist
1:25 AM 53.6 °F - 51.8 °F 94% 30.05 in 0.5 mi Calm Calm - N/A Fog Fog
1:37 AM 53.6 °F - 51.8 °F 94% 30.06 in 0.2 mi Calm Calm - N/A Fog Fog
1:53 AM 54.0 °F - 53.1 °F 97% 30.05 in 0.2 mi Calm Calm - N/A Fog Fog
2:05 AM 51.8 °F - 51.8 °F 100% 30.05 in 0.2 mi Calm Calm - N/A Fog Fog
2:17 AM 53.6 °F - 53.6 °F 100% 30.05 in 2.0 mi Calm Calm - N/A   Scattered Clouds
2:28 AM 53.6 °F - 53.6 °F 100% 30.05 in 1.2 mi Calm Calm - N/A   Partly Cloudy
2:40 AM 53.6 °F - 51.8 °F 94% 30.05 in 2.0 mi Calm Calm - N/A   Clear
2:53 AM 54.0 °F - 53.1 °F 97% 30.04 in 1.5 mi Calm Calm - N/A   Clear
2:58 AM 53.6 °F - 53.6 °F 100% 30.04 in 3.0 mi Calm Calm - N/A   Clear
3:07 AM 53.6 °F - 53.6 °F 100% 30.04 in 1.5 mi Calm Calm - N/A   Clear
3:09 AM 53.6 °F - 53.6 °F 100% 30.04 in 0.8 mi Calm Calm - N/A   Clear
3:16 AM 53.6 °F - 51.8 °F 94% 30.04 in 0.2 mi Calm Calm - N/A Fog Fog
3:26 AM 55.4 °F - 53.6 °F 94% 30.04 in 0.2 mi Calm Calm - N/A Fog Fog
3:34 AM 53.6 °F - 53.6 °F 100% 30.04 in 0.2 mi Calm Calm - N/A Fog Fog
3:53 AM 51.1 °F - 51.1 °F 100% 30.03 in 0.5 mi Calm Calm - N/A Fog Fog
4:27 AM 51.8 °F - 51.8 °F 100% 30.03 in 1.5 mi Calm Calm - N/A   Scattered Clouds
4:33 AM 51.8 °F - 51.8 °F 100% 30.03 in 3.0 mi Calm Calm - N/A   Scattered Clouds
4:38 AM 53.6 °F - 51.8 °F 94% 30.03 in 1.0 mi Calm Calm - N/A   Mist
4:45 AM 51.8 °F - 51.8 °F 100% 30.02 in 0.2 mi Calm Calm - N/A Fog Fog
4:53 AM 51.1 °F - 51.1 °F 100% 30.02 in 1.0 mi Calm Calm - N/A   Mist
4:55 AM 51.8 °F - 51.8 °F 100% 30.02 in 2.5 mi Calm Calm - N/A   Partly Cloudy
5:02 AM 51.8 °F - 51.8 °F 100% 30.02 in 4.0 mi Calm Calm - N/A   Partly Cloudy
5:05 AM 51.8 °F - 50.0 °F 94% 30.02 in 1.8 mi Calm Calm - N/A   Partly Cloudy
5:07 AM 51.8 °F - 50.0 °F 94% 30.02 in 1.0 mi Calm Calm - N/A   Mist
5:14 AM 53.6 °F - 51.8 °F 94% 30.02 in 0.2 mi Calm Calm - N/A Fog Fog
5:53 AM 53.1 °F - 52.0 °F 96% 30.02 in 0.2 mi Calm Calm - N/A Fog Fog
6:50 AM 53.6 °F - 51.8 °F 94% 30.05 in 0.2 mi Calm Calm - N/A Fog Fog
6:51 AM 53.1 °F - 52.0 °F 96% 30.04 in 0.2 mi Calm Calm - N/A Fog Fog
7:39 AM 53.6 °F - 53.6 °F 100% 30.05 in 1.8 mi Calm Calm - N/A   Scattered Clouds
7:42 AM 53.6 °F - 53.6 °F 100% 30.05 in 3.0 mi Calm Calm - N/A   Scattered Clouds
7:50 AM 53.6 °F - 53.6 °F 100% 30.05 in 1.8 mi Calm Calm - N/A   Partly Cloudy
7:53 AM 54.0 °F - 54.0 °F 100% 30.05 in 1.2 mi Calm Calm - N/A   Partly Cloudy
8:06 AM 57.2 °F - 55.4 °F 94% 30.05 in 2.0 mi Calm Calm - N/A   Partly Cloudy
8:24 AM 59.0 °F - 57.2 °F 94% 30.06 in 2.0 mi Calm Calm - N/A   Mostly Cloudy
8:53 AM 61.0 °F - 60.1 °F 97% 30.05 in 2.5 mi SSW 3.5 mph - N/A   Scattered Clouds
9:16 AM 62.6 °F - 60.8 °F 94% 30.05 in 2.5 mi SSW 3.5 mph - N/A   Mostly Cloudy
9:48 AM 62.6 °F - 62.6 °F 100% 30.05 in 2.0 mi SSW 5.8 mph - N/A   Overcast
9:53 AM 64.0 °F - 62.1 °F 93% 30.05 in 1.8 mi SSW 4.6 mph - N/A   Overcast
10:03 AM 64.4 °F - 62.6 °F 94% 30.05 in 2.0 mi SSW 5.8 mph - N/A   Overcast
10:27 AM 64.4 °F - 62.6 °F 94% 30.05 in 1.5 mi SSW 8.1 mph - N/A   Overcast
10:53 AM 66.9 °F - 64.0 °F 90% 30.04 in 2.5 mi South 4.6 mph - N/A   Overcast
11:46 AM 69.8 °F - 64.4 °F 83% 30.04 in 3.0 mi SSW 6.9 mph - N/A   Overcast
11:53 AM 69.1 °F - 64.9 °F 87% 30.04 in 4.0 mi SW 8.1 mph - N/A   Overcast
12:01 PM 69.8 °F - 64.4 °F 83% 30.04 in 4.0 mi SSW 8.1 mph - N/A   Haze
12:32 PM 71.6 °F - 66.2 °F 83% 30.03 in 6.0 mi SSW 8.1 mph - N/A   Haze
12:53 PM 73.0 °F - 66.0 °F 79% 30.02 in 7.0 mi South 8.1 mph - N/A   Partly Cloudy
1:53 PM 78.1 °F - 66.0 °F 66% 30.00 in 10.0 mi SSW 6.9 mph - N/A   Clear
2:53 PM 78.1 °F - 66.0 °F 66% 29.98 in 10.0 mi SW 5.8 mph - N/A   Mostly Cloudy
3:53 PM 79.0 °F - 66.0 °F 64% 29.98 in 10.0 mi SSW 9.2 mph - N/A   Mostly Cloudy
4:53 PM 80.1 °F 82.1 °F 66.0 °F 62% 29.96 in 10.0 mi SSW 9.2 mph - N/A   Partly Cloudy
5:53 PM 75.9 °F - 66.0 °F 71% 29.96 in 10.0 mi WSW 10.4 mph - N/A   Clear
6:53 PM 73.9 °F - 66.0 °F 76% 29.94 in 10.0 mi SSW 6.9 mph - N/A   Clear
7:53 PM 70.0 °F - 64.9 °F 84% 29.95 in 10.0 mi SSW 5.8 mph - N/A   Partly Cloudy
8:53 PM 69.1 °F - 64.9 °F 87% 29.94 in 10.0 mi SSW 4.6 mph - N/A   Partly Cloudy
9:53 PM 68.0 °F - 64.9 °F 90% 29.95 in 10.0 mi SSW 3.5 mph - N/A   Clear
10:53 PM 69.1 °F - 66.0 °F 90% 29.95 in 10.0 mi SSW 8.1 mph - N/A   Overcast
11:53 PM 69.1 °F - 66.0 °F 90% 29.93 in 8.0 mi South 8.1 mph - N/A   Mostly Cloudy